[[{"header":{"parameterUnit":"m.s-1","parameterCategory":1,"la1":30.2991,"la2":30.254,"lo1":-89.0895,"lo2":-89.0444,"dy":0.0017,"dx":0.0017,"nx":28,"ny":28,"refTime":"2025-05-16T03:00:00:Z","depth":0,"parameterNumber":2,"parameterNumberName":"U-component_of_WINDS"},"data":[0,0,0,0,0,0,0,0,0,0,0,0,0,0,0,0,0,0,0,0,0,0,0,0,0,0,0,0,0,0,0,0,0,0,0,0,0,0,0,0,0,0,0,0,0,0,0,0,0,0,0,0,0,0,0,0,0,0,0.6575,0.6574,0,0.6453,0.6452,0.645,0.6332,0.633,0.6329,0.6327,0.6206,0.6205,0.6203,0,0,0,0,0,0,0,0,0,0,0,0,0,0.6708,0.6706,0.6576,0.6574,0.6572,0.6453,0.6452,0.645,0.6332,0.633,0.6328,0.6326,0.6207,0.6205,0.6203,0,0,0,0,0,0,0,0,0,0,0,0,0,0.6625,0.6706,0.6576,0.6499,0.6491,0.6454,0.6452,0.645,0.6332,0.633,0.6328,0.6326,0.6208,0.6205,0.6202,0.6232,0,0,0.6194,0.6193,0,0,0,0,0,0,0,0,0.663,0.662,0.6512,0.6504,0.6495,0.6405,0.6454,0.6377,0.6333,0.6393,0.6327,0.6324,0.6275,0.6266,0.6249,0.6227,0.6222,0.6194,0.6192,0.6191,0.6191,0,0,0,0,0,0,0,0.6636,0.6625,0.6527,0.651,0.65,0.6471,0.6457,0.6439,0.6348,0.6387,0.6378,0.6365,0.627,0.6252,0.6245,0.622,0.6194,0.6192,0.619,0.6189,0.6214,0.6216,0,0,0,0,0,0,0.6653,0.663,0.6531,0.6523,0.6558,0.6471,0.6455,0.6437,0.6348,0.6332,0.6367,0.636,0.6257,0.6248,0.624,0.6268,0.6191,0.6189,0.6187,0.6212,0.6214,0.6217,0,0,0,0,0,0,0.6656,0.6645,0.6536,0.6574,0.6558,0.6471,0.6452,0.6435,0.6417,0.6333,0.6317,0.6365,0.6255,0.6244,0.6234,0.6262,0.6188,0.6185,0.6209,0.6212,0.6216,0.6325,0,0,0,0,0,0,0.666,0.6647,0.6657,0.6575,0.6557,0.6532,0.6453,0.6435,0.6412,0.6402,0.6327,0.6312,0.6252,0.6239,0.6232,0.6257,0.6183,0.6206,0.6211,0.6215,0.6319,0.6332,0.6343,0,0,0,0,0,0.6666,0.6695,0.6659,0.6647,0.6568,0.6534,0.6523,0.6452,0.6415,0.6425,0.637,0.6315,0.626,0.6239,0.623,0.6255,0.6204,0.6209,0.6214,0.6313,0.6329,0.6343,0,0,0,0,0,0,0.6784,0.6682,0.6641,0.6645,0.6598,0.6514,0.6524,0.6472,0.6437,0.6429,0.6343,0.6328,0.6328,0.629,0.6268,0.6278,0.6224,0.6228,0.6303,0.6317,0.6329,0.6339,0.6181,0,0,0,0,0,0.681,0.679,0.6703,0.6714,0.6693,0.6613,0.6595,0.6544,0.6494,0.6474,0.6419,0.6374,0.6345,0.6329,0.6299,0.6312,0.6294,0.6325,0.6337,0.6348,0.6352,0.6354,0.6367,0.6233,0.6233,0.6233,0,0,0.6865,0.6807,0.68,0.6736,0.6695,0.6676,0.6597,0.6582,0.6567,0.6472,0.6459,0.6417,0.636,0.6362,0.636,0.633,0.6384,0.6354,0.6363,0.6361,0.6361,0.6374,0.6385,0.6237,0.6236,0.6236,0,0,0.6954,0.6909,0.6912,0.6871,0.6808,0.6754,0.6755,0.6677,0.6645,0.663,0.6558,0.654,0.6494,0.6456,0.643,0.6503,0.645,0.6495,0.656,0.6563,0.6574,0.6582,0.6607,0.6617,0.65,0.65,0.65,0,0.703,0.6999,0.6921,0.6909,0.6883,0.6793,0.6796,0.676,0.6692,0.6676,0.6644,0.6583,0.6538,0.6528,0.6546,0.6529,0.6527,0.6504,0.6578,0.6586,0.6593,0.6616,0.6626,0.6506,0.6505,0.6505,0.6504,0,0.7095,0.7074,0.7085,0.7018,0.6993,0.6989,0.691,0.6894,0.6845,0.6794,0.6779,0.6722,0.6678,0.6672,0.6625,0.6655,0.6639,0.6594,0.6538,0.6613,0.6633,0.6641,0.6514,0.6512,0.651,0.6509,0,0,0.7258,0.7146,0.7151,0.7119,0.7041,0.7024,0.7015,0.697,0.6958,0.6913,0.6903,0.6865,0.6822,0.6793,0.674,0.6744,0.6803,0.6697,0.6695,0.6719,0.6831,0.6866,0.6877,0.6767,0.6768,0.6769,0.6836,0,0.7334,0.7311,0.7239,0.7239,0.7218,0.7132,0.7124,0.7076,0.7028,0.7004,0.6951,0.6925,0.687,0.6852,0.6851,0.6796,0.6824,0.679,0.6757,0.6757,0.6774,0.6888,0.6924,0.699,0.6843,0.6845,0.6845,0,0.742,0.7379,0.7376,0.7297,0.7285,0.728,0.7231,0.7209,0.7152,0.7117,0.7084,0.7024,0.701,0.6958,0.6936,0.6915,0.6897,0.6867,0.6868,0.6863,0.6806,0.6885,0.7009,0.7019,0.6857,0.6856,0.6855,0,0.7538,0.7482,0.7472,0.7447,0.7355,0.7353,0.7315,0.7255,0.7232,0.719,0.7174,0.7132,0.7109,0.7078,0.7008,0.6977,0.6995,0.6937,0.6965,0.6967,0.6973,0.6974,0.7097,0.6963,0.6962,0.6962,0.6962,0,0.7631,0.7632,0.7523,0.7517,0.7516,0.7433,0.7434,0.7388,0.7335,0.7319,0.7242,0.7229,0.7138,0.7114,0.7059,0.7049,0.704,0.7011,0.6997,0.7018,0.7022,0.7005,0.6999,0.6965,0.6964,0.6964,0.6963,0,0.7763,0.769,0.7673,0.7587,0.7565,0.7568,0.7494,0.7484,0.7431,0.7411,0.7402,0.7318,0.7285,0.7213,0.7162,0.7125,0.7128,0.7102,0.7147,0.7138,0.717,0.7168,0.7286,0.7297,0.7157,0.7159,0.716,0,0.7827,0.7825,0.7738,0.772,0.7685,0.7658,0.7633,0.7551,0.7529,0.7463,0.7462,0.7422,0.7387,0.7339,0.7274,0.7234,0.7206,0.725,0.72,0.7221,0.7206,0.7207,0.7206,0.7262,0.7264,0.7266,0.7267,0,0.7948,0.7911,0.7877,0.7831,0.7803,0.7762,0.7718,0.7709,0.7616,0.7594,0.7559,0.7531,0.7477,0.7439,0.7389,0.735,0.7293,0.7283,0.7287,0.7309,0.7335,0.732,0.7177,0.7281,0.7279,0.7278,0.7278,0.7277,0.8047,0.8041,0.7978,0.7942,0.79,0.786,0.7846,0.779,0.7758,0.7707,0.766,0.7629,0.7571,0.7497,0.7461,0.7436,0.7407,0.7414,0.7416,0.7418,0.7427,0.7338,0.7426,0.7426,0.7425,0.7425,0.7425,0,0.8163,0.8117,0.8086,0.8025,0.7997,0.7944,0.7891,0.7872,0.7845,0.7794,0.776,0.7719,0.7681,0.7612,0.7568,0.7561,0.7534,0.7553,0.7552,0.7544,0.7455,0.7456,0.7575,0.7575,0.7575,0.7575,0.7575,0.7575,0.822,0.8206,0.8162,0.8126,0.808,0.8048,0.8023,0.7985,0.7944,0.7901,0.7868,0.7823,0.7765,0.7716,0.7679,0.7659,0.7647,0.7673,0.7646,0.7565,0.7551,0.7537,0.7537,0.7672,0.7672,0.7736,0.7737,0.7738]},{"header":{"parameterUnit":"m.s-1","parameterCategory":1,"la1":30.2991,"la2":30.254,"lo1":-89.0895,"lo2":-89.0444,"dy":0.0017,"dx":0.0017,"nx":28,"ny":28,"refTime":"2025-05-16T03:00:00:Z","depth":0,"parameterNumber":3,"parameterNumberName":"V-component_of_WINDS"},"data":[0,0,0,0,0,0,0,0,0,0,0,0,0,0,0,0,0,0,0,0,0,0,0,0,0,0,0,0,0,0,0,0,0,0,0,0,0,0,0,0,0,0,0,0,0,0,0,0,0,0,0,0,0,0,0,0,0,0,5.3533,5.3534,0,5.3604,5.3605,5.3606,5.358,5.3579,5.3577,5.3576,5.3643,5.3646,5.3649,0,0,0,0,0,0,0,0,0,0,0,0,0,5.337,5.3373,5.3533,5.3534,5.3535,5.3604,5.3605,5.3606,5.3581,5.3579,5.3577,5.3575,5.3642,5.3646,5.365,0,0,0,0,0,0,0,0,0,0,0,0,0,5.344,5.3374,5.3533,5.3531,5.3531,5.3604,5.3605,5.3606,5.3581,5.3579,5.3576,5.3574,5.3641,5.3645,5.365,5.3728,0,0,5.3665,5.3667,0,0,0,0,0,0,0,0,5.3436,5.3446,5.353,5.3531,5.3532,5.3581,5.3572,5.3647,5.3582,5.3562,5.3576,5.3573,5.3624,5.363,5.3648,5.3731,5.3734,5.3665,5.3668,5.3671,5.3672,0,0,0,0,0,0,0,5.3432,5.3443,5.3561,5.3531,5.3532,5.3524,5.3532,5.3586,5.3605,5.3563,5.3562,5.3571,5.3624,5.3644,5.365,5.3735,5.3665,5.367,5.3673,5.3675,5.3885,5.3887,0,0,0,0,0,0,5.3427,5.3439,5.3559,5.3563,5.3477,5.3529,5.3538,5.3568,5.3604,5.3608,5.3573,5.3569,5.3637,5.3644,5.3652,5.3746,5.3671,5.3675,5.3678,5.3882,5.3885,5.3888,0,0,0,0,0,0,5.3424,5.3438,5.3556,5.3501,5.3515,5.3535,5.3568,5.357,5.359,5.3612,5.3614,5.359,5.3635,5.3645,5.371,5.3748,5.3677,5.3682,5.3879,5.3883,5.3887,5.3934,0,0,0,0,0,0,5.3419,5.3437,5.3468,5.3502,5.3518,5.3614,5.3571,5.3573,5.3599,5.3596,5.3629,5.3632,5.3634,5.3702,5.3714,5.3753,5.3686,5.3876,5.3881,5.3885,5.3929,5.3939,5.3947,0,0,0,0,0,5.3413,5.3477,5.347,5.3484,5.3558,5.3616,5.3625,5.3628,5.3603,5.3633,5.3647,5.3631,5.3742,5.3709,5.3723,5.3763,5.3873,5.3879,5.3885,5.3925,5.3937,5.3947,0,0,0,0,0,0,5.3444,5.3481,5.3474,5.355,5.3581,5.3612,5.365,5.3641,5.3678,5.3672,5.3673,5.368,5.3747,5.3761,5.3725,5.384,5.3803,5.3812,5.3829,5.384,5.385,5.3845,5.369,0,0,0,0,0,5.3461,5.3507,5.3536,5.36,5.3616,5.3631,5.3656,5.3656,5.3687,5.3699,5.3717,5.3746,5.3788,5.3815,5.3854,5.3931,5.3937,5.3965,5.3974,5.3982,5.3989,5.4031,5.4044,5.3908,5.3908,5.3907,0,0,5.3493,5.3519,5.3548,5.3607,5.3631,5.3677,5.3642,5.3692,5.3726,5.3706,5.3769,5.3783,5.3815,5.3887,5.3919,5.3901,5.4029,5.3989,5.3995,5.3999,5.4039,5.4052,5.4063,5.3912,5.3911,5.391,0,0,5.3578,5.3602,5.3659,5.3684,5.3721,5.3731,5.3744,5.3778,5.3787,5.3851,5.3837,5.3876,5.3947,5.3971,5.3992,5.4087,5.4073,5.4099,5.4147,5.4188,5.4199,5.4208,5.4242,5.4254,5.4107,5.4107,5.4107,0,5.3613,5.3685,5.3689,5.3742,5.3768,5.3754,5.3811,5.3834,5.3881,5.3899,5.3878,5.3968,5.3989,5.4065,5.4089,5.4106,5.4121,5.4095,5.4197,5.4207,5.4216,5.4248,5.4261,5.411,5.4109,5.4109,5.4109,0,5.3727,5.3777,5.3818,5.3867,5.3898,5.3952,5.3963,5.3993,5.399,5.4002,5.4066,5.4091,5.4135,5.4153,5.415,5.4229,5.4217,5.4197,5.416,5.4232,5.4262,5.4274,5.4114,5.4113,5.4112,5.4111,0,0,5.3832,5.3884,5.3899,5.3921,5.3961,5.3999,5.4052,5.4097,5.4123,5.4156,5.42,5.4262,5.4244,5.4268,5.4267,5.4303,5.4377,5.4279,5.428,5.4296,5.4466,5.4481,5.4495,5.4368,5.4371,5.4372,5.4463,0,5.392,5.4016,5.4022,5.4108,5.4154,5.4142,5.4188,5.4217,5.4229,5.4268,5.428,5.4324,5.4297,5.4312,5.4347,5.4361,5.4411,5.4354,5.4408,5.441,5.4401,5.4511,5.4527,5.4612,5.4475,5.4477,5.4479,0,5.4035,5.4074,5.4166,5.4201,5.422,5.4262,5.4304,5.4342,5.4374,5.438,5.4409,5.4403,5.4456,5.4417,5.449,5.4452,5.4474,5.4484,5.4487,5.4492,5.4449,5.4519,5.4639,5.4652,5.4497,5.4496,5.4494,0,5.4103,5.4178,5.4243,5.4262,5.4304,5.4334,5.4352,5.4382,5.441,5.4446,5.4463,5.4505,5.4527,5.4559,5.4564,5.4535,5.4637,5.4598,5.4643,5.4643,5.4664,5.4663,5.479,5.4679,5.4679,5.4678,5.4678,0,5.42,5.4257,5.4275,5.4314,5.4377,5.4383,5.4444,5.446,5.4487,5.4529,5.452,5.4558,5.4563,5.4603,5.4607,5.4667,5.4677,5.4683,5.4683,5.4684,5.4683,5.4698,5.4692,5.4682,5.4681,5.468,5.468,0,5.4287,5.4301,5.4371,5.4406,5.4416,5.446,5.4489,5.4527,5.4538,5.4591,5.4603,5.4621,5.4667,5.4676,5.473,5.4733,5.4804,5.4798,5.4794,5.4794,5.4837,5.4833,5.4978,5.4997,5.4874,5.4875,5.4876,0,5.4348,5.4392,5.4432,5.446,5.4481,5.4526,5.4555,5.4561,5.4591,5.4632,5.4664,5.471,5.4747,5.4822,5.4838,5.4879,5.4875,5.4922,5.488,5.488,5.4875,5.4873,5.4877,5.493,5.4932,5.4933,5.4934,0,5.4455,5.4461,5.4503,5.4548,5.4583,5.4619,5.4652,5.4675,5.4686,5.4719,5.4768,5.4797,5.4854,5.4899,5.4941,5.4958,5.4948,5.4947,5.4959,5.496,5.4956,5.4959,5.4816,5.4943,5.4942,5.4942,5.4941,5.4941,5.4531,5.457,5.4605,5.4652,5.4679,5.471,5.4748,5.4765,5.4806,5.4854,5.4855,5.4908,5.4939,5.4994,5.5014,5.5055,5.5039,5.5057,5.5062,5.5066,5.507,5.495,5.5062,5.5062,5.5061,5.5061,5.5061,0,5.4638,5.466,5.4704,5.4753,5.479,5.478,5.4816,5.4847,5.4895,5.4926,5.4963,5.5019,5.5064,5.5084,5.5127,5.5156,5.5152,5.5167,5.5165,5.5169,5.5082,5.5067,5.517,5.5169,5.5169,5.5169,5.5169,5.5169,5.4698,5.4763,5.4773,5.4851,5.4872,5.4926,5.4948,5.4976,5.5001,5.5065,5.5103,5.5116,5.5143,5.5188,5.5228,5.5233,5.5249,5.5266,5.5269,5.5186,5.5175,5.5165,5.5151,5.527,5.527,5.5353,5.5354,5.5354]}]]